AirNav   Air Wisconsin pilot careers
 
 550 users online  

MA93 Bay Bank II Heliport
Burlington, Massachusetts, USA

GOING TO BURLINGTON?


FAA INFORMATION EFFECTIVE 09 NOVEMBER 2017

Location

FAA Identifier: MA93
Lat/Long: 42-28-52.3410N / 071-12-34.2000W
42-28.872350N / 071-12.570000W
42.4812058 / -71.2095000
(estimated)
Elevation: 148 ft. / 45 m (estimated)
Variation: 16W (1985)
From city: 2 miles SW of BURLINGTON, MA
Time zone: UTC -5 (UTC -4 during Daylight Saving Time)
Zip code: 01803

Heliport Operations

Heliport use: Private use. Permission required prior to landing
Activation date: 03/1990
Control tower: no
ARTCC: BOSTON CENTER
FSS: BRIDGEPORT FLIGHT SERVICE STATION
Attendance: UNATNDD
Segmented circle: no

Heliport Communications

WX ASOS at BED (4 nm W): PHONE 781-274-9733
WX ASOS at BOS (11 nm SE): PHONE 617-567-5762
WX ASOS at BVY (14 nm NE): PHONE 978-921-5042
WX ASOS at LWM (15 nm N): 126.75 (978-687-8017)
WX ASOS at OWD (18 nm S): PHONE 781-762-4314

Nearby radio navigation aids

VOR radial/distance  VOR name  Freq  Var
BOSr323/12.2BOSTON VOR/DME112.7016W
LWMr213/16.4LAWRENCE VOR/DME112.5015W
MHTr178/24.3MANCHESTER VOR/DME114.4015W
GDMr110/37.7GARDNER VOR/DME110.6014W
PSMr221/39.8PEASE VOR/DME116.5016W

 
NDB name  Hdg/Dist  Freq  Var  ID
SHAKER HILL334/2.125116WSKR ... -.- .-.
BEDDS105/7.933216WBE -... .
HAGET198/9.840215WLW .-.. .--
FITCHBURG115/24.636515WFIT ..-. .. -
MARSHFIELD330/33.036816WIMR .. -- .-.
TAUNTON003/37.322716WTAN - .- -.

Heliport Services

Runway Information

Helipad H1

Dimensions: 50 x 50 ft. / 15 x 15 m
Surface: asphalt
Traffic pattern: leftleft

Heliport Ownership and Management from official FAA records

Ownership: Privately-owned
Owner: R. LEMONS,GEN MGR,EQUITY OFC
3 NEW ENGLAND EXECUTIVE PK
BURLINGTON, MA 01803
Phone 617-273-0292
Manager: MINUTE MAN AIRFIELD.

Instrument Procedures

There are no published instrument procedures at MA93.

Some nearby airports with instrument procedures:

KBED - Laurence G Hanscom Field Airport (4 nm W)
KBOS - General Edward Lawrence Logan International Airport (11 nm SE)
6B6 - Minute Man Air Field (14 nm W)
KBVY - Beverly Regional Airport (14 nm NE)
KLWM - Lawrence Municipal Airport (15 nm N)
KOWD - Norwood Memorial Airport (18 nm S)
 
Loc | Ops | Rwys | IFR | FBO | Links
Com | Nav | Svcs | Stats | Notes


 
Area around MA93 (Bay Bank II Heliport)
 
Road maps at: MapQuest Bing Google
 
Aerial photo
No photo
 
Sectional chart

 
Airport distance calculator
Flying to Bay Bank II Heliport? Find the distance to fly.

From to MA93

Sunrise and sunset
Times for 23-Nov-2017
 Local
(UTC-5)
 Zulu
(UTC)
Morning civil twilight06:1611:16
Sunrise06:4711:47
Sunset16:1621:16
Evening civil twilight16:4721:47

Current date and time
Zulu (UTC)  23-Nov-2017 13:26:31
Local (UTC-5)  23-Nov-2017 08:26:31
 
METAR
KBED 
4nm W 
231256Z 30005KT 10SM CLR M01/M07 A3002 RMK AO2 SLP181 T10061072
KBOS 
11nm SE 
231254Z 32011KT 10SM FEW250 01/M07 A3003 RMK AO2 SLP170 T00061072
KBVY 
14nm NE 
231253Z 32010KT 10SM CLR M01/M07 A3001 RMK AO2 SLP158 T10061072
KLWM 
15nm N 
231254Z 30003KT 10SM CLR 00/M07 A3003 RMK AO2 SLP170 T00001072
KMQE 
16nm S 
231256Z AUTO 30005KT M02/M06 A3000 RMK AO1 SLP174 T10171061
KOWD 
18nm S 
231253Z 29005KT 10SM CLR 01/M06 A3005 RMK AO2 SLP174 T00061056
TAF
KBED 
4nm W 
231136Z 2312/2412 29008KT P6SM SKC FM232300 00000KT P6SM BKN110 FM240200 25004KT P6SM SCT080
KBOS 
11nm SE 
231136Z 2312/2418 30010KT P6SM SKC FM231800 28006KT P6SM SKC FM240000 26007KT P6SM BKN090 FM240200 26008KT P6SM SCT090
NOTAMs
Click for the latest NOTAMs
NOTAMs are issued by the DoD/FAA and will open in a separate window not controlled by AirNav.

 

 
 

Would you like to see your business listed on this page?

 If your business provides an interesting product or service to pilots, flight crews, aircraft, or users of the Bay Bank II Heliport, you should consider listing it here.  To start the listing process, click on the button below
 
Add a business
 

Other Pages about Bay Bank II Heliport

Update a link
 
Copyright © AirNav, LLC. All rights reserved. Privacy Policy  Contact